Location: Gorrie
(43.8742°N, 81.1087°W)
Time: 07:41:09
(UTC+00:00)

COSMO-SKYMED 1 - Pass Details

Date: 09 December 2025
Orbit: 578 x 580 km, 97.9° (Epoch: 13 January)

Event Time Altitude Azimuth Distance (km) Brightness Sun altitude
Rises 10:47:22 0° 164° (SSE) 2,786 6.3 -20.8°
Reaches altitude 10° 10:49:30 10° 164° (SSE) 1,891 5.4 -20.4°
Maximum altitude 10:53:36 86° 77° (ENE) 589 2.4 -19.7°
Enters shadow 10:56:30 19° 348° (NNW) 1,397 4.1 -19.2°
